Troy, MI

8:52 AM EDT on July 24, 2017 (GMT -0400)
Troy

Weather History for KVLL - May, 2013

Change the Weather History Date:

Friday, May 24, 2013

  Actual Average (KDET) Record (KDET)
Temperature  
Mean Temperature 46 °F -  
Max Temperature 54 °F 72 °F 86 °F (2007)
Min Temperature 37 °F 54 °F 35 °F (1956)
Degree Days  
Heating Degree Days 20    
Moisture  
Dew Point 33 °F    
Average Humidity 64    
Maximum Humidity 86    
Minimum Humidity 43    
Precipitation  
Precipitation 0.00 in - - ()
Sea Level Pressure  
Sea Level Pressure 30.31 in    
Wind  
Wind Speed 8 mph (North)    
Max Wind Speed 15 mph    
Max Gust Speed 21 mph    
Visibility 10 miles    
Events      
Averages and records for this station are not official NWS values.
T = Trace of Precipitation, MM = Missing Value Source: NWS Daily Summary

Daily Weather History Graph

Daily Weather History Graph

Search for Another Location

Airport or City:

Trip Planner

Search our weather history database for the weather conditions in past years. The results will help you decide how hot, cold, wet, or windy it might be!

Date:

Astronomy

May. 24, 2013 Rise Set
Actual Time 6:02 AM EDT 8:57 PM EDT
Civil Twilight 5:29 AM EDT 9:30 PM EDT
Nautical Twilight 4:47 AM EDT 10:12 PM EDT
Astronomical Twilight 3:57 AM EDT 11:02 PM EDT
Moon 8:37 PM EDT 5:35 AM EDT
Length of Visible Light 16h 01m
Length of Day
14h 54m
Full, 100% of the Moon is Illuminated
May 24
Full
May 25
Full
May 31
Last Quarter
Jun 8
New
Jun 16
First Quarter

Hourly Weather History & Observations

Time (EDT) Temp. Windchill Dew Point Humidity Pressure Visibility Wind Dir Wind Speed Gust Speed Precip Events Conditions
12:14 AM 43.0 °F 37.7 °F 35.6 °F 75% 30.17 in 10.0 mi North 9.2 mph - N/A   Clear
12:35 AM 42.8 °F 38.6 °F 35.1 °F 74% 30.17 in 10.0 mi North 6.9 mph - N/A   Clear
12:55 AM 42.3 °F 37.9 °F 34.9 °F 75% 30.18 in 10.0 mi North 6.9 mph - N/A   Clear
1:15 AM 41.9 °F 39.0 °F 34.7 °F 76% 30.18 in 10.0 mi NNW 4.6 mph - N/A   Clear
1:35 AM 41.4 °F 38.4 °F 34.7 °F 77% 30.18 in 10.0 mi NNW 4.6 mph - N/A   Clear
1:55 AM 41.2 °F 37.3 °F 34.7 °F 78% 30.18 in 10.0 mi NNW 5.8 mph - N/A   Clear
2:15 AM 40.6 °F 37.5 °F 34.7 °F 79% 30.18 in 10.0 mi North 4.6 mph - N/A   Clear
2:34 AM 40.3 °F 38.2 °F 34.5 °F 80% 30.19 in 10.0 mi North 3.5 mph - N/A   Clear
2:55 AM 40.1 °F 36.1 °F 34.7 °F 81% 30.19 in 10.0 mi North 5.8 mph - N/A   Clear
3:15 AM 39.9 °F 35.8 °F 34.7 °F 82% 30.19 in 10.0 mi North 5.8 mph - N/A   Clear
3:35 AM 39.7 °F 36.5 °F 34.9 °F 83% 30.20 in 10.0 mi NNW 4.6 mph - N/A   Clear
3:55 AM 39.2 °F 35.9 °F 34.9 °F 84% 30.20 in 10.0 mi NNW 4.6 mph - N/A   Clear
4:15 AM 39.2 °F 35.0 °F 35.1 °F 85% 30.21 in 10.0 mi NNW 5.8 mph - N/A   Clear
4:35 AM 39.2 °F 33.6 °F 35.2 °F 86% 30.22 in 10.0 mi North 8.1 mph - N/A   Clear
4:55 AM 39.2 °F 33.0 °F 35.1 °F 85% 30.23 in 10.0 mi North 9.2 mph - N/A   Clear
5:15 AM 39.0 °F 33.4 °F 34.7 °F 84% 30.24 in 10.0 mi NNW 8.1 mph - N/A   Clear
5:35 AM 38.7 °F 32.4 °F 34.7 °F 86% 30.25 in 10.0 mi North 9.2 mph - N/A   Clear
5:55 AM 38.3 °F 31.9 °F 34.0 °F 84% 30.26 in 10.0 mi North 9.2 mph - N/A   Clear
6:15 AM 37.9 °F 32.7 °F 33.4 °F 84% 30.27 in 10.0 mi North 6.9 mph - N/A   Clear
6:35 AM 37.9 °F 32.1 °F 33.1 °F 83% 30.27 in 10.0 mi North 8.1 mph - N/A   Scattered Clouds
6:55 AM 38.3 °F 31.9 °F 33.1 °F 81% 30.28 in 10.0 mi North 9.2 mph - N/A   Overcast
7:15 AM 38.5 °F 32.1 °F 32.5 °F 79% 30.28 in 10.0 mi NNW 9.2 mph - N/A   Overcast
7:35 AM 39.4 °F 33.2 °F 32.5 °F 76% 30.29 in 10.0 mi NNW 9.2 mph 16.1 mph N/A   Overcast
7:55 AM 40.3 °F 32.2 °F 32.0 °F 72% 30.30 in 10.0 mi North 15.0 mph 20.7 mph N/A   Overcast
8:15 AM 40.1 °F 33.2 °F 31.8 °F 72% 30.30 in 10.0 mi North 11.5 mph 18.4 mph N/A   Overcast
8:35 AM 39.7 °F 33.7 °F 30.9 °F 71% 30.31 in 10.0 mi North 9.2 mph 17.3 mph N/A   Mostly Cloudy
8:55 AM 42.8 °F 38.0 °F 32.5 °F 67% 30.32 in 10.0 mi North 8.1 mph 18.4 mph N/A   Overcast
9:14 AM 42.6 °F 36.3 °F 32.0 °F 66% 30.32 in 10.0 mi North 11.5 mph 17.3 mph N/A   Overcast
9:35 AM 42.6 °F 36.8 °F 30.9 °F 63% 30.34 in 10.0 mi North 10.4 mph 19.6 mph N/A   Mostly Cloudy
9:55 AM 44.2 °F 38.0 °F 31.6 °F 61% 30.34 in 10.0 mi NE 12.7 mph 19.6 mph N/A   Mostly Cloudy
10:15 AM 43.2 °F 37.9 °F 31.1 °F 62% 30.35 in 10.0 mi NNE 9.2 mph 16.1 mph N/A   Mostly Cloudy
10:35 AM 43.7 °F 38.1 °F 31.6 °F 63% 30.35 in 10.0 mi NNW 10.4 mph 16.1 mph N/A   Mostly Cloudy
10:55 AM 44.6 °F 41.4 °F 32.0 °F 61% 30.35 in 10.0 mi North 5.8 mph 16.1 mph N/A   Mostly Cloudy
11:15 AM 45.5 °F 39.6 °F 31.8 °F 59% 30.35 in 10.0 mi North 12.7 mph 18.4 mph N/A   Overcast
11:35 AM 44.6 °F 39.2 °F 31.8 °F 61% 30.36 in 10.0 mi NW 10.4 mph 20.7 mph N/A   Overcast
11:55 AM 45.5 °F 40.8 °F 32.4 °F 60% 30.36 in 10.0 mi NW 9.2 mph - N/A   Overcast
12:15 PM 45.9 °F 40.0 °F 32.0 °F 58% 30.37 in 10.0 mi North 12.7 mph 19.6 mph N/A   Overcast
12:35 PM 46.2 °F 40.5 °F 32.4 °F 58% 30.37 in 10.0 mi NNW 12.7 mph 18.4 mph N/A   Overcast
12:55 PM 47.8 °F - 33.1 °F 57% 30.37 in 10.0 mi North 11.5 mph 19.6 mph N/A   Scattered Clouds
1:15 PM 47.8 °F - 32.0 °F 54% 30.38 in 10.0 mi NNW 11.5 mph 19.6 mph N/A   Mostly Cloudy
1:35 PM 49.3 °F - 33.3 °F 54% 30.37 in 10.0 mi NNW 11.5 mph 18.4 mph N/A   Mostly Cloudy
1:54 PM 48.6 °F - 33.3 °F 56% 30.37 in 10.0 mi NW 15.0 mph 19.6 mph N/A   Mostly Cloudy
2:15 PM 50.5 °F - 33.4 °F 52% 30.37 in 10.0 mi North 11.5 mph 16.1 mph N/A   Scattered Clouds
2:35 PM 50.7 °F - 33.6 °F 52% 30.36 in 10.0 mi NNW 11.5 mph 17.3 mph N/A   Scattered Clouds
2:55 PM 51.1 °F - 33.3 °F 51% 30.36 in 10.0 mi North 13.8 mph 20.7 mph N/A   Scattered Clouds
3:15 PM 51.4 °F - 32.4 °F 48% 30.36 in 10.0 mi NNW 11.5 mph 18.4 mph N/A   Clear
3:35 PM 52.5 °F - 32.7 °F 47% 30.37 in 10.0 mi North 6.9 mph 18.4 mph N/A   Clear
3:55 PM 52.7 °F - 32.5 °F 46% 30.36 in 10.0 mi North 4.6 mph 18.4 mph N/A   Clear
4:15 PM 53.1 °F - 32.7 °F 46% 30.36 in 10.0 mi NW 6.9 mph 16.1 mph N/A   Clear
4:35 PM 53.2 °F - 32.5 °F 45% 30.36 in 10.0 mi North 12.7 mph 18.4 mph N/A   Clear
4:55 PM 53.1 °F - 32.4 °F 45% 30.36 in 10.0 mi NW 9.2 mph 20.7 mph N/A   Clear
5:15 PM 54.0 °F - 33.4 °F 46% 30.36 in 10.0 mi NW 6.9 mph - N/A   Clear
5:35 PM 54.3 °F - 32.7 °F 44% 30.35 in 10.0 mi North 9.2 mph 18.4 mph N/A   Clear
5:55 PM 54.3 °F - 32.5 °F 44% 30.35 in 10.0 mi NNW 10.4 mph - N/A   Clear
6:15 PM 54.1 °F - 32.5 °F 44% 30.35 in 10.0 mi NW 11.5 mph 17.3 mph N/A   Clear
6:35 PM 54.1 °F - 32.9 °F 45% 30.34 in 10.0 mi North 8.1 mph - N/A   Clear
6:55 PM 54.3 °F - 32.9 °F 44% 30.34 in 10.0 mi NNE 9.2 mph 16.1 mph N/A   Clear
7:15 PM 54.1 °F - 32.0 °F 43% 30.33 in 10.0 mi North 6.9 mph - N/A   Clear
7:35 PM 53.8 °F - 32.0 °F 44% 30.33 in 10.0 mi North 8.1 mph - N/A   Clear
7:55 PM 53.8 °F - 32.7 °F 45% 30.32 in 10.0 mi North 6.9 mph - N/A   Clear
8:15 PM 53.6 °F - 33.1 °F 46% 30.32 in 10.0 mi North 4.6 mph - N/A   Clear
8:35 PM 52.7 °F - 33.6 °F 48% 30.32 in 10.0 mi North 5.8 mph - N/A   Clear
8:55 PM 51.6 °F - 34.0 °F 51% 30.32 in 10.0 mi North 4.6 mph - N/A   Clear
9:15 PM 50.9 °F - 34.7 °F 54% 30.32 in 10.0 mi North 3.5 mph - N/A   Clear
9:35 PM 50.5 °F - 34.7 °F 55% 30.32 in 10.0 mi Calm Calm - N/A   Clear
9:54 PM 48.9 °F - 35.4 °F 60% 30.33 in 10.0 mi East 9.2 mph - N/A   Clear
10:15 PM 46.4 °F 44.3 °F 35.4 °F 66% 30.34 in 10.0 mi East 4.6 mph - N/A   Clear
10:35 PM 45.1 °F 42.8 °F 35.1 °F 68% 30.35 in 10.0 mi East 4.6 mph - N/A   Clear
10:55 PM 44.6 °F 40.2 °F 34.7 °F 68% 30.36 in 10.0 mi ENE 8.1 mph - N/A   Clear
11:15 PM 43.3 °F 39.9 °F 32.7 °F 66% 30.37 in 10.0 mi ENE 5.8 mph - N/A   Clear
11:35 PM 43.3 °F - 32.9 °F 67% 30.38 in 10.0 mi Calm Calm - N/A   Clear
11:55 PM 43.0 °F 41.3 °F 32.7 °F 67% 30.38 in 10.0 mi East 3.5 mph - N/A   Clear